User: anonymous   Login
Location: Sungai Apap
(2.6167°N, 113.3833°E)
Time: 07:15:57
(UTC+00:00)
Language:

Cosmos 2219 - Orbit

View from above orbital plane
View from above orbital plane
View from above satellite
View from above satellite

Ground track
Ground track

The orbit data is extracted from the following two-line orbital elements,

1 22219U 92076A   24205.92298674 -.00000086  00000-0 -20540-4 0  9991
2 22219  71.0586 179.1536 0017224  20.0085 340.1709 14.13879229634449
Epoch (UTC): 23 July 2024 22:09:06
Eccentricity: 0.0017224
inclination: 71.0586°
perigee height: 833 km
apogee height: 858 km
right ascension of ascending node: 179.1536°
argument of perigee: 20.0085°
revolutions per day: 14.13879229
mean anomaly at epoch: 340.1709°
orbit number at epoch: 63444

The dashed part of the orbit path shows where the satellite is in the earth's shadow,  

DLR